Flag for Uruguay Weather past 2 weeks in Minas, Uruguay

Now
64 °F

Clear.


Feels Like: 64 °F
Forecast: 58 / 77 °F
Wind: 3 mph from Northeast

Location: Capitan Corbeta

Current Time: Mar 30, 2015 at 5:07:29 AM

Latest Report: Mar 30, 2015 at 3:00 AM


Visibility: 10 mi

Pressure: 29.89 "Hg

Humidity: 83%

Dew point: 59 °F

Location of MinasLocation

Historic Weather in Minas — Graph

°F

Minas temperature yesterday

Maximum temperature yesterday: 79 °F (at 12:00 PM)
Minimum temperature yesterday: 57 °F (at 5:00 AM)
Average temperature yesterday: 68 °F

Past Weeks' High & Low Weather Summary

 TemperatureHumidityPressure
High90 °F (Mar 20, 2:00 PM)100% (Mar 16, 7:00 AM)30.18 "Hg (Mar 16, 7:00 AM)
Low46 °F (Mar 23, 6:00 AM)36% (Mar 20, 2:00 PM)29.71 "Hg (Mar 20, 2:00 PM)
Average67 °F70%30.04 "Hg
* Reported Mar 15 3:00 AM — Mar 30 3:00 AM, Minas, Weather by CustomWeather, © 2015

Note: Actual official high and low records may vary slightly from our data, if they occured in-between our weather recording intervals... More about our weather records

Advertising

Minas weather history for previous 24 hours

 ConditionsComfort  
Time TempWeatherWind HumidityBarometerVisibility
3:00 AM
Mon, Mar 30
64 °FClear.3 mph83%29.89 "Hg10 mi
1:00 AM66 °FClear.9 mph78%29.92 "Hg10 mi
12:00 AM66 °FThunderstorms. Passing clouds.5 mph78%29.95 "HgN/A
11:00 PM
Sun, Mar 29
66 °FClear.7 mph78%29.95 "Hg10 mi
10:00 PM66 °FClear.10 mph73%29.95 "Hg10 mi
9:00 PM68 °FClear.12 mph73%29.92 "Hg10 mi
8:00 PM70 °FClear.6 mph69%29.92 "Hg10 mi
7:00 PM73 °FClear.No wind50%29.92 "Hg10 mi
6:00 PM77 °FPassing clouds.No wind47%29.92 "HgN/A
5:00 PM75 °FPassing clouds.9 mph65%29.92 "HgN/A
4:00 PM77 °FScattered clouds.14 mph51%29.95 "HgN/A
3:00 PM77 °FPartly sunny.9 mph57%29.98 "HgN/A
2:00 PM79 °FPartly sunny.No wind39%30.01 "HgN/A
1:00 PM79 °FScattered clouds.6 mph39%30.04 "HgN/A
12:00 PM79 °FScattered clouds.6 mph42%30.04 "HgN/A
11:00 AM77 °FPassing clouds.6 mph51%30.07 "HgN/A
10:00 AM72 °FSunny.6 mph65%30.07 "Hg10 mi
9:00 AM64 °FSunny.6 mph83%30.07 "Hg10 mi
8:00 AM61 °FSunny.6 mph88%30.07 "Hg10 mi
7:00 AM59 °FSunny.6 mph94%30.07 "Hg10 mi
6:00 AM57 °FSunny.3 mph88%30.04 "Hg10 mi
5:00 AM57 °FClear.3 mph88%30.04 "Hg10 mi
Weather by CustomWeather, © 2015

See weather overviewHow to use our weather pages